Location: Chillicothe
(39.7950°N, 93.5520°W)
Time: 01:39:43
(UTC-05:00)

Transit 2A Rocket - Visible Passes

Search period start: 18 October 2019 00:00
Search period end: 28 October 2019 00:00
Orbit: 594 x 910 km, 66.7° (Epoch: 17 October)

Date Brightness Start Highest point End Pass type
(mag) Time Alt. Az. Time Alt. Az. Time Alt. Az.
18 Oct 7.9 04:53:03 10° SE 04:54:54 12° ESE 04:56:42 10° E visible
18 Oct 4.8 06:31:42 10° SSW 06:36:57 79° WNW 06:41:44 10° NNE visible
19 Oct 5.4 05:49:19 10° SSW 05:54:27 58° ESE 05:59:10 10° NE visible
20 Oct 6.5 05:07:58 13° S 05:12:02 32° ESE 05:16:18 10° NE visible
20 Oct 5.6 06:50:01 10° WSW 06:54:32 31° NW 06:58:45 10° N visible
21 Oct 7.3 04:28:23 16° SE 04:29:42 18° ESE 04:32:56 10° ENE visible
21 Oct 4.9 06:08:23 19° SW 06:11:54 53° WNW 06:16:33 10° NNE visible
22 Oct 4.7 05:28:21 57° SSW 05:29:22 86° ESE 05:34:08 10° NNE visible
23 Oct 6.0 04:48:02 39° ENE 04:48:02 39° ENE 04:51:29 10° NE visible
23 Oct 6.0 06:27:59 19° WNW 06:29:37 22° NW 06:33:17 10° N visible
24 Oct 7.6 04:07:30 15° ENE 04:07:30 15° ENE 04:08:29 10° NE visible
24 Oct 5.5 05:47:26 36° NW 05:47:26 36° NW 05:51:16 10° NNE visible
25 Oct 6.2 05:06:44 28° NNE 05:06:44 28° NNE 05:09:00 10° NNE visible
26 Oct 7.4 04:25:53 14° NE 04:25:53 14° NE 04:26:30 10° NE visible
26 Oct 6.6 06:05:50 15° NNW 06:05:50 15° NNW 06:07:38 10° N visible
27 Oct 6.9 05:24:53 15° N 05:24:53 15° N 05:25:52 10° N visible
